Weather in Beirut

Lebanon     33˚50′09″N   35˚30′15″E
temp.,
°C
wind,
m/s
gust,
m/s
humid.,
%
clouds,
%
prec.,
mm/h
press.,
hPa
HPBL,
m
1 december, tue
tue123:00+16˚s23640 0.0 1015256
02:00+16˚s12560 0.0 1014242
05:00+15˚s12543 0.0 1014271
08:00+17˚sse115233 0.0 1015205
11:00+18˚wsw324867 0.0 1015738
14:00+18˚nw215033 0.1 1013746
17:00+17˚n2258100 0.1 1014557
20:00+17˚nne236683 0.5 1015511
2 december, wed
wed223:00+16˚nne125942 0.0 1015250
02:00+16˚ene125321 0.0 1015252
05:00+16˚e12500 0.0 1016187
08:00+17˚e11460 0.0 1017172
11:00+19˚nw21510 0.0 1017658
14:00+19˚nnw32560 0.0 1016619
17:00+17˚nnw22610 0.0 1017386
20:00+17˚wnw00580 0.0 1018207
3 december, thu
thu323:00+16˚se22520 0.0 1019157
02:00+16˚ese22550 0.0 1019100
05:00+16˚ese22530 0.0 101991
08:00+17˚ese22470 0.0 1020115
11:00+19˚nw21420 0.0 1019552
14:00+19˚nnw33480 0.0 1017683
17:00+18˚n336224 0.0 1018377
20:00+18˚e235021 0.0 1018165
4 december, fri
fri423:00+17˚ese4452100 0.0 1018152
02:00+17˚e5552100 0.0 1016141
05:00+16˚ese3351100 0.0 1016109
08:00+17˚ese3349100 0.0 1017132
11:00+20˚w013966 0.0 1017692
14:00+20˚nnw324942 0.0 1015681
17:00+18˚n22590 0.0 1016360
20:00+17˚ne12563 0.0 1017165
5 december, sat
sat523:00+17˚ese2248100 0.0 101797
02:00+17˚ese2248100 0.0 101676
05:00+17˚se224997 0.0 101699
08:00+18˚se114598 0.0 1017140
11:00+19˚w2149100 0.0 1016662
14:00+18˚w2253100 2.1 1015534
17:00+18˚n1259100 0.5 1015691
20:00+17˚n126197 0.9 1016379